Zurück zum Katalog

DELTA 1 DEB

AktivSSO
NORAD 12200·DEBRIS·🇺🇸 United States

Gestartet Mar 5, 1978 von Vandenberg Space Force Base

Loading…

Nächste Überflüge (nächste 24 Stunden)

TLE

AktuellSource: Space-Track

Epoche: Sep 14, 2026, 10:25 UTC

1 12200U 78026AR  26257.43429771  .00000106  00000-0  53938-4 0  9996
2 12200  98.7552 240.8045 0108854 256.7169 256.9210 14.31768146376820

Verfolge DELTA 1 DEB in Echtzeit mit AllMySat

Download on the App Store